JBU118 KJFK-KBOS

Flight info

Callsign JBU118
Flight time 0h 37m
Altitude 21000
Route MERIT ROBUC3
Aircraft A320/M-SDE3FGHIRWY/LB1

Departure

Time 2026-05-03 20:39
Airport John F. Kennedy International Airport (KJFK)

Arrival

Time 2026-05-03 21:16
Airport Boston Logan International Airport (KBOS)
Time Latitude Longitude Altitude Speed Heading
2026-05-03 20:23 40.64668 -73.77545 23 ft 0 kts 238°
2026-05-03 20:29 40.64670 -73.77541 23 ft 2 kts 238°
2026-05-03 20:29 40.64680 -73.77520 24 ft 3 kts 238°
2026-05-03 20:29 40.64691 -73.77497 23 ft 3 kts 238°
2026-05-03 20:29 40.64701 -73.77475 23 ft 3 kts 228°
2026-05-03 20:30 40.64712 -73.77464 25 ft 3 kts 166°
2026-05-03 20:30 40.64721 -73.77471 23 ft 1 kts 121°
2026-05-03 20:30 40.64727 -73.77485 23 ft 2 kts 121°
2026-05-03 20:30 40.64729 -73.77489 23 ft 1 kts 121°
2026-05-03 20:33 40.64728 -73.77487 23 ft 2 kts 121°
2026-05-03 20:33 40.64715 -73.77458 24 ft 6 kts 121°
2026-05-03 20:33 40.64690 -73.77396 23 ft 9 kts 107°
2026-05-03 20:33 40.64724 -73.77371 25 ft 8 kts 346°
2026-05-03 20:34 40.64782 -73.77355 24 ft 9 kts 44°
2026-05-03 20:34 40.64764 -73.77270 24 ft 12 kts 121°
2026-05-03 20:34 40.64714 -73.77165 25 ft 15 kts 124°
2026-05-03 20:34 40.64624 -73.77091 22 ft 17 kts 176°
2026-05-03 20:35 40.64495 -73.77090 22 ft 20 kts 182°
2026-05-03 20:35 40.64367 -73.77158 24 ft 21 kts 211°
2026-05-03 20:35 40.64235 -73.77261 24 ft 23 kts 211°
2026-05-03 20:35 40.64090 -73.77373 24 ft 26 kts 211°
2026-05-03 20:36 40.63926 -73.77501 21 ft 29 kts 210°
2026-05-03 20:36 40.63743 -73.77646 20 ft 32 kts 212°
2026-05-03 20:36 40.63568 -73.77778 21 ft 16 kts 209°
2026-05-03 20:36 40.63494 -73.77835 23 ft 11 kts 211°
2026-05-03 20:37 40.63422 -73.77893 24 ft 13 kts 211°
2026-05-03 20:37 40.63336 -73.77968 27 ft 15 kts 232°
2026-05-03 20:37 40.63326 -73.78096 28 ft 15 kts 227°
2026-05-03 20:37 40.63264 -73.78200 22 ft 17 kts 284°
2026-05-03 20:38 40.63335 -73.78355 23 ft 34 kts 300°
2026-05-03 20:38 40.63579 -73.78899 27 ft 101 kts 301°
2026-05-03 20:38 40.64035 -73.79905 31 ft 152 kts 301°
2026-05-03 20:38 40.64597 -73.81156 554 ft 162 kts 300°
2026-05-03 20:39 40.65284 -73.82313 1466 ft 157 kts 320°
2026-05-03 20:39 40.66268 -73.82824 2460 ft 157 kts 350°
2026-05-03 20:39 40.67382 -73.82482 3139 ft 177 kts 22°
2026-05-03 20:39 40.68319 -73.81330 3910 ft 189 kts 44°
2026-05-03 20:40 40.69116 -73.79999 4807 ft 181 kts 38°
2026-05-03 20:40 40.70030 -73.78935 5560 ft 173 kts 25°
2026-05-03 20:40 40.71101 -73.78108 5967 ft 186 kts 17°
2026-05-03 20:40 40.72313 -73.77293 6447 ft 203 kts 17°
2026-05-03 20:41 40.73711 -73.77012 6802 ft 212 kts 346°
2026-05-03 20:41 40.75264 -73.77234 7233 ft 241 kts 358°
2026-05-03 20:41 40.76947 -73.76512 7850 ft 270 kts 28°
2026-05-03 20:41 40.78481 -73.75001 8735 ft 278 kts 32°
2026-05-03 20:42 40.80026 -73.73434 9660 ft 282 kts 32°
2026-05-03 20:42 40.81600 -73.71830 10389 ft 293 kts 32°
2026-05-03 20:42 40.83281 -73.70131 10686 ft 317 kts 32°
2026-05-03 20:42 40.85096 -73.68300 11004 ft 338 kts 32°
2026-05-03 20:43 40.86345 -73.67032 11422 ft 344 kts 32°
2026-05-03 20:43 40.88249 -73.65084 12172 ft 348 kts 32°
2026-05-03 20:43 40.90181 -73.63108 12928 ft 353 kts 32°
2026-05-03 20:43 40.92138 -73.61109 13671 ft 358 kts 32°
2026-05-03 20:44 40.94766 -73.58421 14553 ft 363 kts 32°
2026-05-03 20:44 40.96118 -73.57042 14985 ft 365 kts 32°
2026-05-03 20:44 40.98138 -73.54980 15648 ft 369 kts 32°
2026-05-03 20:44 41.00183 -73.52890 16297 ft 373 kts 32°
2026-05-03 20:45 41.02247 -73.50784 16987 ft 376 kts 32°
2026-05-03 20:45 41.04330 -73.48656 17665 ft 380 kts 32°
2026-05-03 20:45 41.06435 -73.46503 18323 ft 384 kts 32°
2026-05-03 20:45 41.08556 -73.44327 18926 ft 387 kts 32°
2026-05-03 20:46 41.10692 -73.42132 19521 ft 391 kts 31°
2026-05-03 20:46 41.12854 -73.39919 20145 ft 395 kts 31°
2026-05-03 20:46 41.15037 -73.37681 20703 ft 398 kts 31°
2026-05-03 20:46 41.17230 -73.35424 20874 ft 400 kts 31°
2026-05-03 20:47 41.19479 -73.33109 20927 ft 418 kts 32°
2026-05-03 20:47 41.21780 -73.30744 20907 ft 428 kts 32°
2026-05-03 20:47 41.24145 -73.28310 20912 ft 431 kts 32°
2026-05-03 20:47 41.26515 -73.25862 20909 ft 432 kts 32°
2026-05-03 20:48 41.28880 -73.23403 20908 ft 432 kts 32°
2026-05-03 20:48 41.31248 -73.20938 20914 ft 432 kts 32°
2026-05-03 20:48 41.33610 -73.18451 20912 ft 434 kts 35°
2026-05-03 20:48 41.35722 -73.15546 20909 ft 441 kts 46°
2026-05-03 20:49 41.37423 -73.12114 20927 ft 448 kts 57°
2026-05-03 20:49 41.38621 -73.08265 20913 ft 454 kts 69°
2026-05-03 20:49 41.39260 -73.04131 20915 ft 458 kts 78°
2026-05-03 20:49 41.39704 -72.99926 20913 ft 459 kts 78°
2026-05-03 20:50 41.40149 -72.95724 20912 ft 458 kts 78°
2026-05-03 20:50 41.40599 -72.91519 20911 ft 459 kts 78°
2026-05-03 20:50 41.41053 -72.87304 20901 ft 459 kts 78°
2026-05-03 20:50 41.41507 -72.83086 20895 ft 460 kts 78°
2026-05-03 20:51 41.41956 -72.78863 20890 ft 460 kts 78°
2026-05-03 20:51 41.42403 -72.74636 20877 ft 461 kts 78°
2026-05-03 20:51 41.42845 -72.70411 20878 ft 461 kts 78°
2026-05-03 20:51 41.43287 -72.66183 20877 ft 461 kts 78°
2026-05-03 20:52 41.43726 -72.61959 20877 ft 461 kts 78°
2026-05-03 20:52 41.44167 -72.57730 20886 ft 460 kts 79°
2026-05-03 20:52 41.44607 -72.53504 20881 ft 461 kts 79°
2026-05-03 20:52 41.45049 -72.49269 20880 ft 461 kts 78°
2026-05-03 20:53 41.45490 -72.45025 20878 ft 461 kts 79°
2026-05-03 20:53 41.45927 -72.40783 20875 ft 461 kts 79°
2026-05-03 20:53 41.46358 -72.36597 20873 ft 461 kts 79°
2026-05-03 20:53 41.46792 -72.32362 20872 ft 461 kts 79°
2026-05-03 20:54 41.47221 -72.28112 20869 ft 461 kts 79°
2026-05-03 20:54 41.48508 -72.19778 20859 ft 456 kts 66°
2026-05-03 20:54 41.49758 -72.15927 20861 ft 451 kts 59°
2026-05-03 20:55 41.51146 -72.12169 20858 ft 451 kts 59°
2026-05-03 20:55 41.52528 -72.08414 20855 ft 451 kts 59°
2026-05-03 20:55 41.53886 -72.04700 20724 ft 438 kts 59°
2026-05-03 20:55 41.55200 -72.01088 20466 ft 430 kts 59°
2026-05-03 20:56 41.56460 -71.97477 20213 ft 427 kts 62°
2026-05-03 20:56 41.57617 -71.93823 19951 ft 426 kts 63°
2026-05-03 20:56 41.58702 -71.90145 19719 ft 424 kts 65°
2026-05-03 20:56 41.59746 -71.86473 19469 ft 422 kts 65°
2026-05-03 20:57 41.60779 -71.82811 19168 ft 418 kts 65°
2026-05-03 20:57 41.61805 -71.79200 18583 ft 415 kts 64°
2026-05-03 20:57 41.62847 -71.75611 18013 ft 413 kts 64°
2026-05-03 20:57 41.63890 -71.72064 17563 ft 405 kts 64°
2026-05-03 20:58 41.64904 -71.68620 17419 ft 390 kts 64°
2026-05-03 20:58 41.65876 -71.65315 17279 ft 375 kts 63°
2026-05-03 20:58 41.66807 -71.62132 17141 ft 361 kts 63°
2026-05-03 20:58 41.67712 -71.59045 16897 ft 352 kts 63°
2026-05-03 20:59 41.68602 -71.56025 16590 ft 347 kts 63°
2026-05-03 20:59 41.69486 -71.53032 16147 ft 346 kts 63°
2026-05-03 20:59 41.70368 -71.50041 15673 ft 345 kts 63°
2026-05-03 20:59 41.71235 -71.47094 15231 ft 345 kts 63°
2026-05-03 21:00 41.72106 -71.44120 14815 ft 342 kts 63°
2026-05-03 21:00 41.72797 -71.42194 14531 ft 336 kts 55°
2026-05-03 21:00 41.74338 -71.38610 13977 ft 334 kts 54°
2026-05-03 21:00 41.75491 -71.35913 13591 ft 332 kts 54°
2026-05-03 21:01 41.76613 -71.33273 13413 ft 322 kts 54°
2026-05-03 21:01 41.77716 -71.30679 13072 ft 319 kts 54°
2026-05-03 21:01 41.78808 -71.28112 12720 ft 316 kts 54°
2026-05-03 21:01 41.79890 -71.25566 12359 ft 314 kts 55°
2026-05-03 21:02 41.80969 -71.23038 11990 ft 311 kts 54°
2026-05-03 21:02 41.82042 -71.20526 11638 ft 309 kts 54°
2026-05-03 21:02 41.83117 -71.18042 11286 ft 306 kts 54°
2026-05-03 21:02 41.84204 -71.15599 10934 ft 304 kts 54°
2026-05-03 21:03 41.85287 -71.13180 10600 ft 301 kts 54°
2026-05-03 21:03 41.86362 -71.10782 10242 ft 300 kts 54°
2026-05-03 21:03 41.87427 -71.08396 9897 ft 297 kts 54°
2026-05-03 21:03 41.88484 -71.06018 9536 ft 295 kts 54°
2026-05-03 21:04 41.89517 -71.03690 9152 ft 294 kts 54°
2026-05-03 21:04 41.90539 -71.01374 8983 ft 284 kts 54°
2026-05-03 21:04 41.91537 -70.99096 8692 ft 282 kts 54°
2026-05-03 21:04 41.92529 -70.96841 8428 ft 278 kts 52°
2026-05-03 21:05 41.93569 -70.94689 8207 ft 274 kts 51°
2026-05-03 21:05 41.94643 -70.92596 7992 ft 272 kts 49°
2026-05-03 21:05 41.95742 -70.90516 7784 ft 272 kts 49°
2026-05-03 21:05 41.96825 -70.88444 7561 ft 270 kts 50°
2026-05-03 21:06 41.97903 -70.86377 7358 ft 268 kts 50°
2026-05-03 21:06 41.98970 -70.84322 7158 ft 269 kts 50°
2026-05-03 21:06 42.00027 -70.82261 6852 ft 268 kts 50°
2026-05-03 21:06 42.01134 -70.80256 6528 ft 265 kts 41°
2026-05-03 21:07 42.02439 -70.78523 6205 ft 264 kts 38°
2026-05-03 21:07 42.03755 -70.76800 5859 ft 264 kts 35°
2026-05-03 21:07 42.05320 -70.75638 5520 ft 254 kts 11°
2026-05-03 21:07 42.07032 -70.75089 5177 ft 252 kts
2026-05-03 21:08 42.08755 -70.74618 4837 ft 253 kts
2026-05-03 21:08 42.10478 -70.74158 4502 ft 252 kts
2026-05-03 21:08 42.12176 -70.74246 4153 ft 241 kts 338°
2026-05-03 21:08 42.13626 -70.75253 3992 ft 229 kts 326°
2026-05-03 21:09 42.14932 -70.76368 3992 ft 216 kts 325°
2026-05-03 21:09 42.16158 -70.77430 3994 ft 202 kts 325°
2026-05-03 21:09 42.17293 -70.78408 3994 ft 189 kts 325°
2026-05-03 21:09 42.18390 -70.79344 3996 ft 186 kts 325°
2026-05-03 21:10 42.19483 -70.80268 4005 ft 186 kts 325°
2026-05-03 21:10 42.20553 -70.81236 4008 ft 185 kts 319°
2026-05-03 21:10 42.21507 -70.82381 4003 ft 180 kts 315°
2026-05-03 21:10 42.22394 -70.83522 4003 ft 175 kts 315°
2026-05-03 21:11 42.23318 -70.84592 3896 ft 175 kts 321°
2026-05-03 21:11 42.24327 -70.85461 3695 ft 170 kts 326°
2026-05-03 21:11 42.25332 -70.86263 3503 ft 166 kts 324°
2026-05-03 21:11 42.26255 -70.87083 3493 ft 150 kts 321°
2026-05-03 21:12 42.27055 -70.87933 3369 ft 143 kts 317°
2026-05-03 21:12 42.27787 -70.88817 3148 ft 140 kts 315°
2026-05-03 21:12 42.28476 -70.89752 2879 ft 141 kts 312°
2026-05-03 21:12 42.29150 -70.90711 2574 ft 139 kts 312°
2026-05-03 21:13 42.29779 -70.91601 2368 ft 125 kts 311°
2026-05-03 21:13 42.30350 -70.92476 2259 ft 124 kts 309°
2026-05-03 21:13 42.30882 -70.93386 2103 ft 123 kts 307°
2026-05-03 21:13 42.31387 -70.94314 1906 ft 122 kts 306°
2026-05-03 21:14 42.31877 -70.95229 1639 ft 121 kts 306°
2026-05-03 21:14 42.32370 -70.96147 1388 ft 120 kts 306°
2026-05-03 21:14 42.32858 -70.97062 1141 ft 121 kts 304°
2026-05-03 21:14 42.33340 -70.98024 851 ft 125 kts 306°
2026-05-03 21:15 42.33857 -70.98966 485 ft 121 kts 306°
2026-05-03 21:15 42.34357 -70.99890 205 ft 124 kts 305°
2026-05-03 21:15 42.34865 -71.00830 43 ft 124 kts 305°
2026-05-03 21:15 42.35309 -71.01668 28 ft 81 kts 306°
2026-05-03 21:16 42.35481 -71.01988 28 ft 21 kts 307°
2026-05-03 21:16 42.35562 -71.02141 26 ft 20 kts 306°
2026-05-03 21:16 42.35625 -71.02259 27 ft 15 kts 306°
2026-05-03 21:16 42.35698 -71.02273 29 ft 12 kts 50°
2026-05-03 21:17 42.35677 -71.02159 30 ft 15 kts 121°
2026-05-03 21:17 42.35640 -71.02076 26 ft 16 kts 121°
2026-05-03 21:17 42.35567 -71.01878 26 ft 19 kts 94°
2026-05-03 21:17 42.35580 -71.01735 26 ft 14 kts 75°
2026-05-03 21:18 42.35658 -71.01664 26 ft 15 kts 16°
2026-05-03 21:18 42.35771 -71.01613 26 ft 19 kts 21°
2026-05-03 21:18 42.35905 -71.01546 28 ft 22 kts 19°
2026-05-03 21:18 42.36058 -71.01468 27 ft 25 kts 21°
2026-05-03 21:19 42.36231 -71.01384 29 ft 27 kts 21°
2026-05-03 21:19 42.36367 -71.01382 26 ft 18 kts 306°
2026-05-03 21:19 42.36447 -71.01454 30 ft 8 kts 340°
2026-05-03 21:19 42.36474 -71.01467 26 ft 0 kts 342°